Time,TemperatureF,DewpointF,PressureIn,WindDirection,WindDirectionDegrees,WindSpeedMPH,WindSpeedGustMPH,Humidity,HourlyPrecipIn,Conditions,Clouds,dailyrainin,SoftwareType,DateUTC
2013-01-30 00:00:00,47.3,43.0,29.41,ESE,113,1.1,1.3,85,0.00,,,0.00,WUHU216HW,2013-01-30 05:00:00,
2013-01-30 00:03:00,47.2,42.9,29.41,WSW,248,0.4,1.3,85,0.00,,,0.00,WUHU216HW,2013-01-30 05:03:00,
2013-01-30 00:08:00,46.8,42.6,29.40,SW,225,0.0,2.2,85,0.00,,,0.00,WUHU216HW,2013-01-30 05:08:00,
2013-01-30 00:13:00,46.6,42.4,29.41,SW,225,0.9,2.2,85,0.00,,,0.00,WUHU216HW,2013-01-30 05:13:00,
2013-01-30 00:18:00,46.4,42.2,29.41,SW,225,1.8,1.8,85,0.00,,,0.00,WUHU216HW,2013-01-30 05:18:00,
2013-01-30 00:23:00,46.3,42.0,29.40,SE,135,0.4,1.8,85,0.00,,,0.00,WUHU216HW,2013-01-30 05:23:00,
2013-01-30 00:28:00,46.1,41.9,29.40,SE,135,1.1,1.8,85,0.00,,,0.00,WUHU216HW,2013-01-30 05:28:00,
2013-01-30 00:33:00,46.1,41.9,29.40,ESE,113,2.5,2.9,85,0.00,,,0.00,WUHU216HW,2013-01-30 05:33:00,
2013-01-30 00:38:00,45.9,41.9,29.40,ESE,113,1.3,2.9,86,0.00,,,0.00,WUHU216HW,2013-01-30 05:38:00,
2013-01-30 00:43:00,45.9,41.9,29.40,West,270,1.6,2.5,86,0.00,,,0.00,WUHU216HW,2013-01-30 05:43:00,
2013-01-30 00:48:00,45.7,41.8,29.40,ESE,113,1.8,1.8,86,0.00,,,0.00,WUHU216HW,2013-01-30 05:48:00,
2013-01-30 00:53:00,45.7,41.8,29.39,SE,135,0.9,1.8,86,0.00,,,0.00,WUHU216HW,2013-01-30 05:53:00,
2013-01-30 00:58:00,45.5,41.6,29.38,SE,135,0.7,1.8,86,0.00,,,0.00,WUHU216HW,2013-01-30 05:58:00,
2013-01-30 01:03:00,45.4,41.4,29.38,SW,225,1.3,1.3,86,0.00,,,0.00,WUHU216HW,2013-01-30 06:03:00,
2013-01-30 01:08:00,45.5,42.0,29.38,ESE,113,0.4,1.3,87,0.00,,,0.00,WUHU216HW,2013-01-30 06:08:00,
2013-01-30 01:13:00,45.5,42.0,29.38,SW,225,0.2,1.8,87,0.00,,,0.00,WUHU216HW,2013-01-30 06:13:00,
2013-01-30 01:18:00,45.5,42.0,29.37,SSW,203,0.9,1.8,87,0.00,,,0.00,WUHU216HW,2013-01-30 06:18:00,
2013-01-30 01:23:00,45.7,42.4,29.37,SE,135,0.0,1.1,88,0.00,,,0.00,WUHU216HW,2013-01-30 06:23:00,
2013-01-30 01:28:00,45.5,42.2,29.37,SE,135,0.0,1.1,88,0.00,,,0.00,WUHU216HW,2013-01-30 06:28:00,
2013-01-30 01:33:00,45.4,42.0,29.37,WSW,248,2.9,2.9,88,0.00,,,0.00,WUHU216HW,2013-01-30 06:33:00,
2013-01-30 01:38:00,45.4,42.0,29.37,WSW,248,1.8,2.9,88,0.00,,,0.00,WUHU216HW,2013-01-30 06:38:00,
2013-01-30 01:43:00,45.2,41.9,29.37,South,180,1.1,2.9,88,0.00,,,0.00,WUHU216HW,2013-01-30 06:43:00,
2013-01-30 01:48:00,45.2,41.9,29.36,ESE,113,1.8,1.8,88,0.00,,,0.00,WUHU216HW,2013-01-30 06:48:00,
2013-01-30 01:53:00,45.2,41.9,29.37,SSW,203,1.1,1.8,88,0.00,,,0.00,WUHU216HW,2013-01-30 06:53:00,
2013-01-30 01:58:00,45.2,41.9,29.36,SW,225,1.8,2.0,88,0.00,,,0.00,WUHU216HW,2013-01-30 06:58:00,
2013-01-30 02:03:00,45.0,41.7,29.36,SSW,203,2.0,2.0,88,0.00,,,0.00,WUHU216HW,2013-01-30 07:03:00,
2013-01-30 02:08:00,45.2,41.9,29.36,SSE,158,0.9,2.0,88,0.00,,,0.00,WUHU216HW,2013-01-30 07:08:00,
2013-01-30 02:13:00,45.4,42.0,29.35,SW,225,1.6,1.6,88,0.00,,,0.00,WUHU216HW,2013-01-30 07:13:00,
2013-01-30 02:18:00,45.9,42.9,29.35,ESE,113,1.1,2.0,89,0.00,,,0.00,WUHU216HW,2013-01-30 07:18:00,
2013-01-30 02:23:00,46.1,43.1,29.35,SSE,158,0.7,2.0,89,0.00,,,0.00,WUHU216HW,2013-01-30 07:23:00,
2013-01-30 02:28:00,46.4,43.5,29.34,WSW,248,0.9,2.0,89,0.00,,,0.00,WUHU216HW,2013-01-30 07:28:00,
2013-01-30 02:33:00,46.6,43.7,29.34,SW,225,1.1,2.0,89,0.00,,,0.00,WUHU216HW,2013-01-30 07:33:00,
2013-01-30 02:38:00,46.8,43.8,29.34,SW,225,2.9,3.8,89,0.00,,,0.00,WUHU216HW,2013-01-30 07:38:00,
2013-01-30 02:43:00,47.0,44.0,29.33,SE,135,1.6,3.8,89,0.00,,,0.00,WUHU216HW,2013-01-30 07:43:00,
2013-01-30 02:48:00,47.3,44.6,29.32,SSE,158,0.9,2.9,90,0.00,,,0.00,WUHU216HW,2013-01-30 07:48:00,
2013-01-30 02:53:00,47.5,44.8,29.33,WSW,248,2.7,4.0,90,0.00,,,0.00,WUHU216HW,2013-01-30 07:53:00,
2013-01-30 02:58:00,47.7,44.6,29.33,SW,225,1.6,4.0,89,0.00,,,0.00,WUHU216HW,2013-01-30 07:58:00,
2013-01-30 03:03:00,47.7,44.6,29.32,SSW,203,1.3,2.7,89,0.00,,,0.00,WUHU216HW,2013-01-30 08:03:00,
2013-01-30 03:08:00,47.9,44.8,29.32,SSE,158,1.1,2.5,89,0.00,,,0.00,WUHU216HW,2013-01-30 08:08:00,
2013-01-30 03:13:00,47.9,44.8,29.32,SE,135,2.9,2.9,89,0.00,,,0.00,WUHU216HW,2013-01-30 08:13:00,
2013-01-30 03:18:00,48.1,45.0,29.32,SE,135,1.3,2.9,89,0.00,,,0.00,WUHU216HW,2013-01-30 08:18:00,
2013-01-30 03:23:00,48.1,45.0,29.32,SSE,158,1.6,2.9,89,0.00,,,0.00,WUHU216HW,2013-01-30 08:23:00,
2013-01-30 03:28:00,48.2,45.2,29.32,SW,225,1.1,2.9,89,0.00,,,0.00,WUHU216HW,2013-01-30 08:28:00,
2013-01-30 03:33:00,48.2,45.2,29.32,SW,225,2.2,2.9,89,0.00,,,0.00,WUHU216HW,2013-01-30 08:33:00,
2013-01-30 03:38:00,48.6,45.5,29.32,SE,135,1.1,2.2,89,0.00,,,0.00,WUHU216HW,2013-01-30 08:38:00,
2013-01-30 03:43:00,48.6,45.5,29.31,SE,135,1.8,2.2,89,0.00,,,0.00,WUHU216HW,2013-01-30 08:43:00,
2013-01-30 03:48:00,48.8,45.7,29.31,WSW,248,2.7,3.1,89,0.00,,,0.00,WUHU216HW,2013-01-30 08:48:00,
2013-01-30 03:53:00,49.0,45.5,29.31,ESE,113,0.9,3.1,88,0.00,,,0.00,WUHU216HW,2013-01-30 08:53:00,
2013-01-30 03:58:00,49.1,46.1,29.30,SW,225,0.9,2.7,89,0.00,,,0.00,WUHU216HW,2013-01-30 08:58:00,
2013-01-30 04:03:00,49.3,46.2,29.30,SSE,158,1.3,1.8,89,0.00,,,0.00,WUHU216HW,2013-01-30 09:03:00,
2013-01-30 04:08:00,49.3,46.2,29.30,SSW,203,0.9,1.6,89,0.00,,,0.00,WUHU216HW,2013-01-30 09:08:00,
2013-01-30 04:13:00,49.7,46.5,29.30,SE,135,1.6,2.0,89,0.00,,,0.00,WUHU216HW,2013-01-30 09:13:00,
2013-01-30 04:18:00,49.9,47.0,29.30,SE,135,1.8,2.2,90,0.00,,,0.00,WUHU216HW,2013-01-30 09:18:00,
2013-01-30 04:23:00,50.4,47.5,29.30,South,180,2.7,2.7,90,0.00,,,0.00,WUHU216HW,2013-01-30 09:23:00,
2013-01-30 04:28:00,50.9,48.1,29.29,SE,135,1.6,3.1,90,0.00,,,0.00,WUHU216HW,2013-01-30 09:28:00,
2013-01-30 04:33:00,51.5,48.6,29.29,SE,135,2.0,3.1,90,0.00,,,0.00,WUHU216HW,2013-01-30 09:33:00,
2013-01-30 04:38:00,51.5,48.6,29.29,SSE,158,0.9,3.1,90,0.00,,,0.00,WUHU216HW,2013-01-30 09:38:00,
2013-01-30 04:43:00,51.8,49.2,29.28,SE,135,1.6,4.0,91,0.00,,,0.00,WUHU216HW,2013-01-30 09:43:00,
2013-01-30 04:48:00,52.4,49.8,29.28,ESE,113,1.8,4.0,91,0.00,,,0.00,WUHU216HW,2013-01-30 09:48:00,
2013-01-30 04:53:00,52.6,50.0,29.27,SE,135,1.1,2.0,91,0.00,,,0.00,WUHU216HW,2013-01-30 09:53:00,
2013-01-30 04:58:00,52.9,50.3,29.27,ESE,113,1.1,1.8,91,0.00,,,0.00,WUHU216HW,2013-01-30 09:58:00,
2013-01-30 05:03:00,53.1,50.2,29.26,ESE,113,1.1,1.1,90,0.00,,,0.00,WUHU216HW,2013-01-30 10:03:00,
2013-01-30 05:08:00,53.3,50.7,29.26,East,90,2.0,2.5,91,0.00,,,0.00,WUHU216HW,2013-01-30 10:08:00,
2013-01-30 05:13:00,53.8,50.9,29.26,East,90,1.1,2.5,90,0.00,,,0.00,WUHU216HW,2013-01-30 10:13:00,
2013-01-30 05:18:00,54.2,51.3,29.25,East,90,2.0,2.0,90,0.00,,,0.00,WUHU216HW,2013-01-30 10:18:00,
2013-01-30 05:23:00,54.5,51.3,29.24,East,90,1.3,2.0,89,0.00,,,0.00,WUHU216HW,2013-01-30 10:23:00,
2013-01-30 05:28:00,54.5,51.3,29.25,East,90,0.7,1.8,89,0.00,,,0.00,WUHU216HW,2013-01-30 10:28:00,
2013-01-30 05:33:00,55.1,51.8,29.24,East,90,1.1,1.3,89,0.00,,,0.00,WUHU216HW,2013-01-30 10:33:00,
2013-01-30 05:38:00,55.4,52.2,29.24,SW,225,2.5,2.5,89,0.00,,,0.00,WUHU216HW,2013-01-30 10:38:00,
2013-01-30 05:43:00,55.4,52.2,29.24,SSE,158,5.8,5.8,89,0.00,,,0.00,WUHU216HW,2013-01-30 10:43:00,
2013-01-30 05:48:00,56.2,53.3,29.24,South,180,3.1,9.6,90,0.00,,,0.00,WUHU216HW,2013-01-30 10:48:00,
2013-01-30 05:53:00,56.9,53.6,29.25,South,180,5.4,9.6,89,0.00,,,0.00,WUHU216HW,2013-01-30 10:53:00,
2013-01-30 05:58:00,57.2,54.0,29.25,SSW,203,4.3,5.6,89,0.00,,,0.00,WUHU216HW,2013-01-30 10:58:00,
2013-01-30 06:03:00,57.4,53.9,29.25,SSE,158,4.0,5.4,88,0.00,,,0.00,WUHU216HW,2013-01-30 11:03:00,
2013-01-30 06:08:00,57.6,54.1,29.25,SSW,203,4.0,5.1,88,0.00,,,0.00,WUHU216HW,2013-01-30 11:08:00,
2013-01-30 06:13:00,57.8,54.3,29.26,SSW,203,3.4,4.7,88,0.00,,,0.00,WUHU216HW,2013-01-30 11:13:00,
2013-01-30 06:18:00,58.0,54.1,29.26,SSE,158,3.4,4.7,87,0.00,,,0.00,WUHU216HW,2013-01-30 11:18:00,
2013-01-30 06:23:00,58.0,54.1,29.26,SSE,158,4.3,4.3,87,0.00,,,0.00,WUHU216HW,2013-01-30 11:23:00,
2013-01-30 06:28:00,58.0,54.5,29.25,SE,135,3.4,4.9,88,0.00,,,0.00,WUHU216HW,2013-01-30 11:28:00,
2013-01-30 06:33:00,58.1,54.6,29.25,SE,135,4.0,4.9,88,0.00,,,0.00,WUHU216HW,2013-01-30 11:33:00,
2013-01-30 06:38:00,58.1,54.3,29.24,ESE,113,2.9,5.1,87,0.00,,,0.00,WUHU216HW,2013-01-30 11:38:00,
2013-01-30 06:43:00,58.1,54.3,29.24,SW,225,3.4,5.1,87,0.00,,,0.00,WUHU216HW,2013-01-30 11:43:00,
2013-01-30 06:48:00,58.3,54.5,29.24,South,180,3.1,3.4,87,0.00,,,0.00,WUHU216HW,2013-01-30 11:48:00,
2013-01-30 06:53:00,58.3,54.5,29.24,SW,225,2.5,3.4,87,0.00,,,0.00,WUHU216HW,2013-01-30 11:53:00,
2013-01-30 06:58:00,58.5,54.6,29.24,SE,135,2.9,4.7,87,0.00,,,0.00,WUHU216HW,2013-01-30 11:58:00,
2013-01-30 07:03:00,58.7,54.8,29.24,ESE,113,2.7,4.7,87,0.00,,,0.00,WUHU216HW,2013-01-30 12:03:00,
2013-01-30 07:08:00,58.9,55.0,29.24,SSW,203,3.8,4.9,87,0.00,,,0.00,WUHU216HW,2013-01-30 12:08:00,
2013-01-30 07:13:00,59.0,55.2,29.23,SSE,158,2.2,6.5,87,0.00,,,0.00,WUHU216HW,2013-01-30 12:13:00,
2013-01-30 07:18:00,59.2,55.1,29.22,SSE,158,4.9,6.5,86,0.00,,,0.00,WUHU216HW,2013-01-30 12:18:00,
2013-01-30 07:23:00,59.2,55.1,29.22,South,180,6.7,7.4,86,0.00,,,0.00,WUHU216HW,2013-01-30 12:23:00,
2013-01-30 07:28:00,59.4,55.3,29.23,SSE,158,2.9,7.4,86,0.00,,,0.00,WUHU216HW,2013-01-30 12:28:00,
2013-01-30 07:33:00,59.6,55.5,29.23,SSE,158,2.9,6.7,86,0.00,,,0.00,WUHU216HW,2013-01-30 12:33:00,
2013-01-30 07:38:00,59.8,55.3,29.23,SSE,158,5.8,5.8,85,0.00,,,0.00,WUHU216HW,2013-01-30 12:38:00,
2013-01-30 07:43:00,59.8,55.3,29.23,SSW,203,5.1,5.8,85,0.00,,,0.00,WUHU216HW,2013-01-30 12:43:00,
2013-01-30 07:48:00,60.1,55.6,29.23,SW,225,5.1,6.9,85,0.00,,,0.00,WUHU216HW,2013-01-30 12:48:00,
2013-01-30 07:53:00,60.5,56.0,29.23,South,180,4.3,6.9,85,0.00,,,0.00,WUHU216HW,2013-01-30 12:53:00,
2013-01-30 07:58:00,60.5,56.0,29.22,SW,225,5.4,5.4,85,0.00,,,0.00,WUHU216HW,2013-01-30 12:58:00,
2013-01-30 08:03:00,60.5,55.6,29.22,South,180,5.1,5.4,84,0.00,,,0.00,WUHU216HW,2013-01-30 13:03:00,
2013-01-30 08:08:00,60.7,55.8,29.22,SE,135,3.8,5.4,84,0.00,,,0.00,WUHU216HW,2013-01-30 13:08:00,
2013-01-30 08:13:00,60.8,56.0,29.22,SW,225,4.3,6.7,84,0.00,,,0.00,WUHU216HW,2013-01-30 13:13:00,
2013-01-30 08:18:00,61.0,55.9,29.22,SE,135,4.7,6.7,83,0.00,,,0.00,WUHU216HW,2013-01-30 13:18:00,
2013-01-30 08:23:00,61.2,56.1,29.22,South,180,4.0,6.5,83,0.00,,,0.00,WUHU216HW,2013-01-30 13:23:00,
2013-01-30 08:28:00,61.2,56.1,29.22,SW,225,11.0,11.0,83,0.00,,,0.00,WUHU216HW,2013-01-30 13:28:00,
2013-01-30 08:33:00,61.6,56.3,29.22,SE,135,4.3,11.0,83,0.00,,,0.00,WUHU216HW,2013-01-30 13:33:00,
2013-01-30 08:38:00,61.6,56.3,29.22,SE,135,6.7,11.0,83,0.00,,,0.00,WUHU216HW,2013-01-30 13:38:00,
2013-01-30 08:43:00,61.6,56.3,29.22,SSE,158,5.6,6.7,83,0.00,,,0.00,WUHU216HW,2013-01-30 13:43:00,
2013-01-30 08:48:00,61.7,56.2,29.22,SSE,158,4.5,6.7,82,0.00,,,0.00,WUHU216HW,2013-01-30 13:48:00,
2013-01-30 08:53:00,61.7,56.5,29.21,SE,135,4.7,4.7,83,0.00,,,0.00,WUHU216HW,2013-01-30 13:53:00,
2013-01-30 08:58:00,61.7,56.5,29.21,SSE,158,3.8,4.7,83,0.00,,,0.00,WUHU216HW,2013-01-30 13:58:00,
2013-01-30 09:03:00,61.9,56.7,29.21,SSE,158,5.1,5.4,83,0.00,,,0.00,WUHU216HW,2013-01-30 14:03:00,
2013-01-30 09:08:00,62.1,56.5,29.21,SSW,203,11.0,11.0,82,0.00,,,0.00,WUHU216HW,2013-01-30 14:08:00,
2013-01-30 09:13:00,62.1,56.5,29.20,South,180,4.0,11.0,82,0.00,,,0.00,WUHU216HW,2013-01-30 14:13:00,
2013-01-30 09:18:00,62.3,56.7,29.19,SSE,158,5.1,11.0,82,0.00,,,0.00,WUHU216HW,2013-01-30 14:18:00,
2013-01-30 09:23:00,62.3,57.1,29.18,SSE,158,8.5,8.5,83,0.00,,,0.00,WUHU216HW,2013-01-30 14:23:00,
2013-01-30 09:28:00,62.5,57.3,29.19,South,180,6.7,8.5,83,0.00,,,0.00,WUHU216HW,2013-01-30 14:28:00,
2013-01-30 09:33:00,62.6,57.3,29.18,SE,135,6.9,8.5,83,0.00,,,0.00,WUHU216HW,2013-01-30 14:33:00,
2013-01-30 09:38:00,62.6,57.3,29.18,South,180,8.1,8.5,83,0.00,,,0.00,WUHU216HW,2013-01-30 14:38:00,
2013-01-30 09:43:00,63.0,57.4,29.18,South,180,6.3,8.5,82,0.00,,,0.00,WUHU216HW,2013-01-30 14:43:00,
2013-01-30 09:48:00,63.2,57.6,29.18,SE,135,5.1,11.0,82,0.00,,,0.00,WUHU216HW,2013-01-30 14:48:00,
2013-01-30 09:53:00,63.4,57.4,29.19,SW,225,11.9,11.9,81,0.00,,,0.00,WUHU216HW,2013-01-30 14:53:00,
2013-01-30 09:58:00,63.7,57.8,29.18,SE,135,11.2,18.1,81,0.02,,,0.02,WUHU216HW,2013-01-30 14:58:00,
2013-01-30 10:03:00,64.1,57.8,29.18,SSE,158,6.5,18.1,80,0.02,,,0.02,WUHU216HW,2013-01-30 15:03:00,
2013-01-30 10:08:00,64.3,58.0,29.19,SW,225,8.5,16.8,80,0.02,,,0.02,WUHU216HW,2013-01-30 15:08:00,
2013-01-30 10:13:00,64.3,58.0,29.19,SSW,203,7.2,16.8,80,0.02,,,0.02,WUHU216HW,2013-01-30 15:13:00,
2013-01-30 10:18:00,64.4,58.1,29.19,SSE,158,6.3,16.3,80,0.02,,,0.02,WUHU216HW,2013-01-30 15:18:00,
2013-01-30 10:23:00,64.3,58.0,29.18,South,180,6.3,10.7,80,0.02,,,0.02,WUHU216HW,2013-01-30 15:23:00,
2013-01-30 10:28:00,64.4,58.1,29.18,SW,225,7.4,8.5,80,0.02,,,0.02,WUHU216HW,2013-01-30 15:28:00,
2013-01-30 10:33:00,64.4,58.1,29.18,SSE,158,12.1,12.1,80,0.02,,,0.02,WUHU216HW,2013-01-30 15:33:00,
2013-01-30 10:38:00,64.4,58.1,29.18,SE,135,7.4,12.1,80,0.02,,,0.02,WUHU216HW,2013-01-30 15:38:00,
2013-01-30 10:43:00,64.6,58.3,29.17,SE,135,8.3,13.2,80,0.02,,,0.02,WUHU216HW,2013-01-30 15:43:00,
2013-01-30 10:48:00,64.6,58.3,29.17,SSW,203,9.4,13.2,80,0.02,,,0.02,WUHU216HW,2013-01-30 15:48:00,
2013-01-30 10:53:00,64.8,58.5,29.17,SW,225,5.6,12.1,80,0.00,,,0.02,WUHU216HW,2013-01-30 15:53:00,
2013-01-30 10:58:00,65.2,58.9,29.16,SW,225,12.8,15.0,80,0.00,,,0.02,WUHU216HW,2013-01-30 15:58:00,
2013-01-30 11:03:00,65.3,59.0,29.16,SSE,158,6.0,15.0,80,0.00,,,0.02,WUHU216HW,2013-01-30 16:03:00,
2013-01-30 11:08:00,65.3,59.0,29.16,SE,135,6.9,12.8,80,0.00,,,0.02,WUHU216HW,2013-01-30 16:08:00,
2013-01-30 11:13:00,65.5,59.2,29.15,ESE,113,9.6,9.6,80,0.00,,,0.02,WUHU216HW,2013-01-30 16:13:00,
2013-01-30 11:18:00,65.5,58.9,29.15,South,180,8.3,12.1,79,0.00,,,0.02,WUHU216HW,2013-01-30 16:18:00,
2013-01-30 11:23:00,65.5,58.9,29.14,South,180,12.1,12.1,79,0.00,,,0.02,WUHU216HW,2013-01-30 16:23:00,
2013-01-30 11:28:00,65.7,59.1,29.14,South,180,11.0,12.1,79,0.00,,,0.02,WUHU216HW,2013-01-30 16:28:00,
2013-01-30 11:33:00,65.9,59.2,29.14,SSE,158,11.6,12.1,79,0.00,,,0.02,WUHU216HW,2013-01-30 16:33:00,
2013-01-30 11:38:00,66.1,59.1,29.13,SW,225,14.1,14.1,78,0.00,,,0.02,WUHU216HW,2013-01-30 16:38:00,
2013-01-30 11:43:00,66.2,59.2,29.13,WSW,248,11.9,14.5,78,0.00,,,0.02,WUHU216HW,2013-01-30 16:43:00,
2013-01-30 11:48:00,66.2,59.2,29.13,SW,225,12.1,14.5,78,0.00,,,0.02,WUHU216HW,2013-01-30 16:48:00,
2013-01-30 11:53:00,66.2,59.2,29.12,SE,135,8.5,13.0,78,0.00,,,0.02,WUHU216HW,2013-01-30 16:53:00,
2013-01-30 11:58:00,66.6,59.1,29.11,SW,225,9.8,15.4,77,0.00,,,0.02,WUHU216HW,2013-01-30 16:58:00,
2013-01-30 12:03:00,66.6,59.1,29.11,South,180,13.4,15.4,77,0.00,,,0.02,WUHU216HW,2013-01-30 17:03:00,
2013-01-30 12:08:00,66.6,59.1,29.11,SSE,158,13.2,13.4,77,0.00,,,0.02,WUHU216HW,2013-01-30 17:08:00,
2013-01-30 12:13:00,66.6,59.1,29.10,South,180,9.8,13.4,77,0.00,,,0.02,WUHU216HW,2013-01-30 17:13:00,
2013-01-30 12:18:00,66.6,59.1,29.10,SE,135,7.6,13.2,77,0.00,,,0.02,WUHU216HW,2013-01-30 17:18:00,
2013-01-30 12:23:00,66.6,59.1,29.10,SE,135,7.8,9.8,77,0.00,,,0.02,WUHU216HW,2013-01-30 17:23:00,
2013-01-30 12:28:00,66.6,59.1,29.09,SSW,203,11.4,11.4,77,0.00,,,0.02,WUHU216HW,2013-01-30 17:28:00,
2013-01-30 12:33:00,66.8,59.3,29.08,SSW,203,6.3,11.4,77,0.00,,,0.02,WUHU216HW,2013-01-30 17:33:00,
2013-01-30 12:38:00,66.8,59.3,29.08,SSW,203,7.6,11.4,77,0.00,,,0.02,WUHU216HW,2013-01-30 17:38:00,
2013-01-30 12:43:00,66.6,59.1,29.08,South,180,6.9,10.7,77,0.00,,,0.02,WUHU216HW,2013-01-30 17:43:00,
2013-01-30 12:48:00,66.6,59.6,29.07,SSE,158,6.5,10.7,78,0.00,,,0.02,WUHU216HW,2013-01-30 17:48:00,
2013-01-30 12:53:00,66.6,59.1,29.07,SSE,158,9.2,14.3,77,0.00,,,0.02,WUHU216HW,2013-01-30 17:53:00,
2013-01-30 12:58:00,66.6,59.1,29.07,SW,225,6.5,14.3,77,0.00,,,0.02,WUHU216HW,2013-01-30 17:58:00,
2013-01-30 13:03:00,66.8,59.3,29.06,SSW,203,8.9,9.2,77,0.00,,,0.02,WUHU216HW,2013-01-30 18:03:00,
2013-01-30 13:08:00,67.0,59.5,29.07,South,180,11.0,12.8,77,0.00,,,0.02,WUHU216HW,2013-01-30 18:08:00,
2013-01-30 13:13:00,67.0,59.5,29.07,South,180,11.2,16.8,77,0.00,,,0.02,WUHU216HW,2013-01-30 18:13:00,
2013-01-30 13:18:00,67.0,59.5,29.06,SE,135,13.4,16.8,77,0.00,,,0.02,WUHU216HW,2013-01-30 18:18:00,
2013-01-30 13:23:00,67.0,59.5,29.06,SSW,203,5.6,20.1,77,0.00,,,0.02,WUHU216HW,2013-01-30 18:23:00,
2013-01-30 13:28:00,67.0,59.5,29.06,SSW,203,6.0,20.1,77,0.00,,,0.02,WUHU216HW,2013-01-30 18:28:00,
2013-01-30 13:33:00,67.0,60.0,29.06,SSE,158,7.6,7.6,78,0.00,,,0.02,WUHU216HW,2013-01-30 18:33:00,
2013-01-30 13:38:00,66.6,59.6,29.06,SW,225,6.3,9.2,78,0.00,,,0.02,WUHU216HW,2013-01-30 18:38:00,
2013-01-30 13:43:00,66.6,60.0,29.06,SSW,203,5.1,10.1,79,0.00,,,0.02,WUHU216HW,2013-01-30 18:43:00,
2013-01-30 13:48:00,66.6,60.0,29.06,SW,225,4.7,10.1,79,0.00,,,0.02,WUHU216HW,2013-01-30 18:48:00,
2013-01-30 13:53:00,66.8,60.1,29.06,SSW,203,7.6,8.3,79,0.00,,,0.02,WUHU216HW,2013-01-30 18:53:00,
2013-01-30 13:58:00,67.0,60.0,29.05,SW,225,6.9,8.3,78,0.00,,,0.02,WUHU216HW,2013-01-30 18:58:00,
2013-01-30 14:03:00,67.0,60.0,29.05,SSW,203,14.3,14.3,78,0.00,,,0.02,WUHU216HW,2013-01-30 19:03:00,
2013-01-30 14:08:00,67.1,59.7,29.05,SW,225,14.1,14.3,77,0.00,,,0.02,WUHU216HW,2013-01-30 19:08:00,
2013-01-30 14:13:00,67.3,60.3,29.05,SW,225,4.5,14.3,78,0.00,,,0.02,WUHU216HW,2013-01-30 19:13:00,
2013-01-30 14:18:00,67.1,59.7,29.05,SSW,203,8.5,14.1,77,0.00,,,0.02,WUHU216HW,2013-01-30 19:18:00,
2013-01-30 14:23:00,67.0,59.5,29.04,SSE,158,9.2,10.5,77,0.00,,,0.02,WUHU216HW,2013-01-30 19:23:00,
2013-01-30 14:28:00,67.0,59.5,29.04,SW,225,15.0,15.0,77,0.00,,,0.02,WUHU216HW,2013-01-30 19:28:00,
2013-01-30 14:33:00,67.0,60.3,29.04,SSE,158,12.1,15.0,79,0.00,,,0.02,WUHU216HW,2013-01-30 19:33:00,
2013-01-30 14:38:00,66.8,60.1,29.04,SE,135,3.8,15.0,79,0.00,,,0.02,WUHU216HW,2013-01-30 19:38:00,
2013-01-30 14:43:00,66.6,60.3,29.04,SSW,203,10.7,12.1,80,0.00,,,0.02,WUHU216HW,2013-01-30 19:43:00,
2013-01-30 14:48:00,66.4,60.5,29.04,SSE,158,6.7,10.7,81,0.00,,,0.02,WUHU216HW,2013-01-30 19:48:00,
2013-01-30 14:53:00,66.4,60.1,29.04,SW,225,5.4,11.9,80,0.00,,,0.02,WUHU216HW,2013-01-30 19:53:00,
2013-01-30 14:58:00,66.4,60.1,29.03,SE,135,2.9,11.9,80,0.00,,,0.02,WUHU216HW,2013-01-30 19:58:00,
2013-01-30 15:03:00,66.4,60.1,29.03,SSE,158,5.1,5.4,80,0.00,,,0.02,WUHU216HW,2013-01-30 20:03:00,
2013-01-30 15:08:00,66.4,60.1,29.02,SSE,158,5.1,5.8,80,0.00,,,0.02,WUHU216HW,2013-01-30 20:08:00,
2013-01-30 15:13:00,66.2,59.9,29.02,SSW,203,11.0,11.0,80,0.00,,,0.02,WUHU216HW,2013-01-30 20:13:00,
2013-01-30 15:18:00,66.6,60.0,29.01,SSW,203,7.2,11.0,79,0.00,,,0.02,WUHU216HW,2013-01-30 20:18:00,
2013-01-30 15:23:00,66.6,60.0,29.01,South,180,15.0,15.0,79,0.00,,,0.02,WUHU216HW,2013-01-30 20:23:00,
2013-01-30 15:28:00,66.6,60.0,29.01,SSE,158,4.5,15.0,79,0.00,,,0.02,WUHU216HW,2013-01-30 20:28:00,
2013-01-30 15:33:00,66.6,60.0,29.00,SSE,158,9.8,15.0,79,0.00,,,0.02,WUHU216HW,2013-01-30 20:33:00,
2013-01-30 15:38:00,66.4,60.1,29.00,SSE,158,8.5,9.8,80,0.00,,,0.02,WUHU216HW,2013-01-30 20:38:00,
2013-01-30 15:43:00,66.4,60.1,29.00,SSE,158,9.8,9.8,80,0.00,,,0.02,WUHU216HW,2013-01-30 20:43:00,
2013-01-30 15:48:00,66.2,59.9,29.00,SSW,203,10.7,10.7,80,0.00,,,0.02,WUHU216HW,2013-01-30 20:48:00,
2013-01-30 15:53:00,66.2,59.9,29.00,SSW,203,5.8,10.7,80,0.00,,,0.02,WUHU216HW,2013-01-30 20:53:00,
2013-01-30 15:58:00,66.1,59.8,28.99,SSE,158,5.1,10.7,80,0.00,,,0.02,WUHU216HW,2013-01-30 20:58:00,
2013-01-30 16:03:00,66.1,59.8,28.99,South,180,5.8,5.8,80,0.00,,,0.02,WUHU216HW,2013-01-30 21:03:00,
2013-01-30 16:08:00,66.1,59.8,28.99,ESE,113,6.9,7.6,80,0.00,,,0.02,WUHU216HW,2013-01-30 21:08:00,
2013-01-30 16:13:00,66.1,59.8,28.99,SSE,158,6.9,7.6,80,0.00,,,0.02,WUHU216HW,2013-01-30 21:13:00,
2013-01-30 16:18:00,66.1,59.8,28.98,SW,225,8.1,8.1,80,0.00,,,0.02,WUHU216HW,2013-01-30 21:18:00,
2013-01-30 16:23:00,65.9,59.6,28.97,SSE,158,8.5,8.5,80,0.00,,,0.02,WUHU216HW,2013-01-30 21:23:00,
2013-01-30 16:28:00,65.9,60.0,28.97,SE,135,7.6,8.5,81,0.00,,,0.02,WUHU216HW,2013-01-30 21:28:00,
2013-01-30 16:33:00,65.9,59.6,28.97,SSE,158,7.8,9.4,80,0.00,,,0.02,WUHU216HW,2013-01-30 21:33:00,
2013-01-30 16:38:00,65.9,60.0,28.97,SSE,158,6.5,9.4,81,0.00,,,0.02,WUHU216HW,2013-01-30 21:38:00,
2013-01-30 16:43:00,65.9,60.0,28.97,SW,225,8.5,10.5,81,0.00,,,0.02,WUHU216HW,2013-01-30 21:43:00,
2013-01-30 16:48:00,65.9,59.6,28.97,SE,135,6.5,10.5,80,0.00,,,0.02,WUHU216HW,2013-01-30 21:48:00,
2013-01-30 16:53:00,65.9,59.6,28.98,SSW,203,6.9,8.5,80,0.00,,,0.02,WUHU216HW,2013-01-30 21:53:00,
2013-01-30 16:58:00,65.9,60.0,28.99,SSE,158,5.4,7.6,81,0.00,,,0.02,WUHU216HW,2013-01-30 21:58:00,
2013-01-30 17:03:00,65.7,58.3,29.00,NW,315,3.4,7.6,77,0.00,,,0.02,WUHU216HW,2013-01-30 22:03:00,
2013-01-30 17:08:00,63.0,55.6,28.98,NW,315,5.4,7.2,77,0.00,,,0.02,WUHU216HW,2013-01-30 22:08:00,
2013-01-30 17:13:00,61.4,55.5,28.97,NW,315,2.9,5.4,81,0.00,,,0.02,WUHU216HW,2013-01-30 22:13:00,
2013-01-30 17:18:00,60.5,55.4,28.98,NW,315,1.3,8.5,83,0.03,,,0.02,WUHU216HW,2013-01-30 22:18:00,
2013-01-30 17:23:00,59.8,55.9,28.99,WNW,293,4.5,8.5,87,0.05,,,0.07,WUHU216HW,2013-01-30 22:23:00,
2013-01-30 17:28:00,59.4,56.2,29.00,West,270,9.4,9.4,89,0.14,,,0.16,WUHU216HW,2013-01-30 22:28:00,
2013-01-30 17:33:00,59.0,55.8,28.99,NE,45,9.4,10.1,89,0.20,,,0.22,WUHU216HW,2013-01-30 22:33:00,
2013-01-30 17:38:00,58.0,55.1,28.98,NE,45,15.0,17.7,90,0.22,,,0.24,WUHU216HW,2013-01-30 22:38:00,
2013-01-30 17:43:00,57.6,55.0,28.98,North,0,10.1,17.7,91,0.26,,,0.28,WUHU216HW,2013-01-30 22:43:00,
2013-01-30 17:48:00,57.2,54.9,29.00,NNW,338,2.2,16.1,92,0.30,,,0.32,WUHU216HW,2013-01-30 22:48:00,
2013-01-30 17:53:00,57.2,54.9,29.01,NNE,23,4.9,16.1,92,0.39,,,0.40,WUHU216HW,2013-01-30 22:53:00,
2013-01-30 17:58:00,57.1,54.7,29.01,SSE,158,1.8,5.4,92,0.48,,,0.50,WUHU216HW,2013-01-30 22:58:00,
2013-01-30 18:03:00,57.1,54.7,29.02,ESE,113,0.4,4.3,92,0.60,,,0.61,WUHU216HW,2013-01-30 23:03:00,
2013-01-30 18:08:00,57.2,54.9,29.02,ESE,113,0.2,2.7,92,0.61,,,0.63,WUHU216HW,2013-01-30 23:08:00,
2013-01-30 18:13:00,56.9,54.5,29.01,ESE,113,1.6,2.9,92,0.63,,,0.65,WUHU216HW,2013-01-30 23:13:00,
2013-01-30 18:18:00,56.9,54.5,29.01,SE,135,1.1,2.9,92,0.62,,,0.67,WUHU216HW,2013-01-30 23:18:00,
2013-01-30 18:23:00,56.9,54.5,29.01,SSE,158,0.4,1.6,92,0.61,,,0.68,WUHU216HW,2013-01-30 23:23:00,
2013-01-30 18:28:00,56.7,54.4,29.01,SW,225,1.1,1.1,92,0.46,,,0.68,WUHU216HW,2013-01-30 23:28:00,
2013-01-30 18:33:00,56.5,54.2,28.99,NE,45,0.2,2.5,92,0.47,,,0.69,WUHU216HW,2013-01-30 23:33:00,
2013-01-30 18:38:00,56.3,54.0,28.99,NE,45,0.0,2.5,92,0.44,,,0.69,WUHU216HW,2013-01-30 23:38:00,
2013-01-30 18:43:00,56.3,54.0,28.99,West,270,1.8,1.8,92,0.41,,,0.70,WUHU216HW,2013-01-30 23:43:00,
2013-01-30 18:48:00,56.2,53.8,28.99,SW,225,1.3,1.8,92,0.33,,,0.70,WUHU216HW,2013-01-30 23:48:00,
2013-01-30 18:53:00,56.2,53.8,28.98,SSW,203,1.6,1.8,92,0.26,,,0.71,WUHU216HW,2013-01-30 23:53:00,
2013-01-30 18:58:00,56.2,53.8,28.97,WSW,248,0.0,1.6,92,0.16,,,0.72,WUHU216HW,2013-01-30 23:58:00,
2013-01-30 19:03:00,56.2,53.8,28.96,WNW,293,0.7,0.7,92,0.10,,,0.72,WUHU216HW,2013-01-31 00:03:00,
2013-01-30 19:08:00,55.8,53.8,28.98,WSW,248,1.8,2.2,93,0.10,,,0.73,WUHU216HW,2013-01-31 00:08:00,
2013-01-30 19:13:00,55.8,53.8,28.97,SSE,158,0.4,2.2,93,0.08,,,0.73,WUHU216HW,2013-01-31 00:13:00,
2013-01-30 19:18:00,55.8,53.8,28.98,SSE,158,1.1,1.8,93,0.07,,,0.74,WUHU216HW,2013-01-31 00:18:00,
2013-01-30 19:23:00,55.8,53.8,28.97,SW,225,1.1,1.1,93,0.08,,,0.76,WUHU216HW,2013-01-31 00:23:00,
2013-01-30 19:28:00,55.8,53.8,28.96,WSW,248,0.7,1.1,93,0.07,,,0.76,WUHU216HW,2013-01-31 00:28:00,
2013-01-30 19:33:00,55.8,53.8,28.96,SSW,203,2.0,2.5,93,0.10,,,0.79,WUHU216HW,2013-01-31 00:33:00,
2013-01-30 19:38:00,55.8,53.8,28.96,SSE,158,1.1,2.5,93,0.11,,,0.80,WUHU216HW,2013-01-31 00:38:00,
2013-01-30 19:43:00,55.8,53.8,28.94,SW,225,1.1,2.2,93,0.11,,,0.81,WUHU216HW,2013-01-31 00:43:00,
2013-01-30 19:48:00,55.8,53.8,28.94,SSE,158,0.9,2.2,93,0.11,,,0.82,WUHU216HW,2013-01-31 00:48:00,
2013-01-30 19:53:00,55.8,53.8,28.95,SE,135,1.1,2.2,93,0.13,,,0.84,WUHU216HW,2013-01-31 00:53:00,
2013-01-30 19:58:00,55.6,53.7,28.94,ESE,113,0.7,2.2,93,0.14,,,0.86,WUHU216HW,2013-01-31 00:58:00,
2013-01-30 20:03:00,55.6,53.7,28.93,ESE,113,0.4,1.1,93,0.15,,,0.87,WUHU216HW,2013-01-31 01:03:00,
2013-01-30 20:08:00,55.6,53.7,28.93,ESE,113,0.0,0.7,93,0.15,,,0.88,WUHU216HW,2013-01-31 01:08:00,
2013-01-30 20:13:00,55.4,53.5,28.92,ESE,113,0.0,0.4,93,0.16,,,0.89,WUHU216HW,2013-01-31 01:13:00,
2013-01-30 20:18:00,55.4,53.5,28.92,SSE,158,0.4,0.4,93,0.16,,,0.91,WUHU216HW,2013-01-31 01:18:00,
2013-01-30 20:23:00,55.3,53.6,28.90,West,270,0.0,0.7,94,0.17,,,0.93,WUHU216HW,2013-01-31 01:23:00,
2013-01-30 20:28:00,55.1,53.4,28.89,WNW,293,1.1,1.1,94,0.15,,,0.94,WUHU216HW,2013-01-31 01:28:00,
2013-01-30 20:33:00,55.1,53.4,28.89,NW,315,0.9,1.1,94,0.14,,,0.94,WUHU216HW,2013-01-31 01:33:00,
2013-01-30 20:39:00,55.1,53.4,28.89,NNW,338,0.0,1.1,94,0.17,,,0.98,WUHU216HW,2013-01-31 01:39:00,
2013-01-30 20:43:00,55.1,53.4,28.88,NW,315,0.0,0.4,94,0.18,,,0.99,WUHU216HW,2013-01-31 01:43:00,
2013-01-30 20:48:00,55.1,53.4,28.88,NNW,338,0.4,0.4,94,0.18,,,1.02,WUHU216HW,2013-01-31 01:48:00,
2013-01-30 20:54:00,55.1,53.4,28.87,North,0,0.0,0.4,94,0.19,,,1.03,WUHU216HW,2013-01-31 01:54:00,
2013-01-30 20:59:00,55.1,53.4,28.87,NNW,338,0.0,1.3,94,0.21,,,1.08,WUHU216HW,2013-01-31 01:59:00,
2013-01-30 21:04:00,55.1,53.4,28.86,North,0,0.4,1.3,94,0.22,,,1.09,WUHU216HW,2013-01-31 02:04:00,
2013-01-30 21:09:00,55.1,53.4,28.86,NW,315,0.0,1.6,94,0.22,,,1.11,WUHU216HW,2013-01-31 02:09:00,
2013-01-30 21:14:00,55.1,53.4,28.86,NW,315,0.0,1.6,94,0.23,,,1.15,WUHU216HW,2013-01-31 02:14:00,
2013-01-30 21:19:00,55.1,53.4,28.86,NW,315,0.0,0.9,94,0.26,,,1.17,WUHU216HW,2013-01-31 02:19:00,
2013-01-30 21:24:00,54.9,53.2,28.86,WNW,293,0.0,0.0,94,0.28,,,1.20,WUHU216HW,2013-01-31 02:24:00,
2013-01-30 21:29:00,55.1,53.4,28.85,WNW,293,1.8,1.8,94,0.28,,,1.22,WUHU216HW,2013-01-31 02:29:00,
2013-01-30 21:34:00,54.9,53.2,28.85,SE,135,0.4,1.8,94,0.30,,,1.27,WUHU216HW,2013-01-31 02:34:00,
2013-01-30 21:39:00,55.1,53.4,28.84,SE,135,0.0,1.8,94,0.33,,,1.31,WUHU216HW,2013-01-31 02:39:00,
2013-01-30 21:44:00,55.1,53.6,28.83,SE,135,0.0,0.4,95,0.33,,,1.33,WUHU216HW,2013-01-31 02:44:00,
2013-01-30 21:49:00,55.1,53.4,28.83,SE,135,1.1,1.3,94,0.33,,,1.36,WUHU216HW,2013-01-31 02:49:00,
2013-01-30 21:54:00,55.1,53.6,28.82,NNW,338,0.4,1.3,95,0.33,,,1.39,WUHU216HW,2013-01-31 02:54:00,
2013-01-30 21:59:00,55.1,53.6,28.82,NNW,338,1.1,1.8,95,0.33,,,1.42,WUHU216HW,2013-01-31 02:59:00,
2013-01-30 22:04:00,54.9,53.5,28.82,NNW,338,0.0,1.8,95,0.35,,,1.44,WUHU216HW,2013-01-31 03:04:00,
2013-01-30 22:09:00,54.9,53.5,28.82,West,270,1.8,1.8,95,0.30,,,1.45,WUHU216HW,2013-01-31 03:09:00,
2013-01-30 22:14:00,54.7,53.3,28.80,ENE,68,0.7,1.8,95,0.35,,,1.50,WUHU216HW,2013-01-31 03:14:00,
2013-01-30 22:19:00,54.7,53.3,28.80,East,90,0.4,1.8,95,0.35,,,1.53,WUHU216HW,2013-01-31 03:19:00,
2013-01-30 22:24:00,54.7,53.3,28.81,SSW,203,1.3,1.3,95,0.33,,,1.54,WUHU216HW,2013-01-31 03:24:00,
2013-01-30 22:29:00,54.7,53.3,28.81,SE,135,1.1,1.8,95,0.33,,,1.59,WUHU216HW,2013-01-31 03:29:00,
2013-01-30 22:34:00,54.7,53.3,28.79,ENE,68,1.1,1.8,95,0.35,,,1.62,WUHU216HW,2013-01-31 03:34:00,
2013-01-30 22:39:00,54.7,53.3,28.78,ENE,68,1.8,1.8,95,0.33,,,1.64,WUHU216HW,2013-01-31 03:39:00,
2013-01-30 22:44:00,54.5,53.1,28.76,East,90,1.8,1.8,95,0.33,,,1.65,WUHU216HW,2013-01-31 03:44:00,
2013-01-30 22:49:00,54.7,53.3,28.76,ENE,68,0.0,2.0,95,0.28,,,1.66,WUHU216HW,2013-01-31 03:49:00,
2013-01-30 22:54:00,54.7,53.3,28.76,WNW,293,1.8,2.0,95,0.28,,,1.67,WUHU216HW,2013-01-31 03:54:00,
2013-01-30 22:59:00,54.7,53.3,28.77,West,270,2.9,2.9,95,0.25,,,1.67,WUHU216HW,2013-01-31 03:59:00,
2013-01-30 23:04:00,54.5,53.1,28.76,WNW,293,2.2,2.9,95,0.23,,,1.67,WUHU216HW,2013-01-31 04:04:00,
2013-01-30 23:09:00,54.4,52.9,28.75,NNW,338,0.0,2.9,95,0.21,,,1.69,WUHU216HW,2013-01-31 04:09:00,
2013-01-30 23:14:00,54.4,52.9,28.76,WNW,293,1.3,2.2,95,0.20,,,1.70,WUHU216HW,2013-01-31 04:14:00,
2013-01-30 23:19:00,54.4,52.9,28.73,NW,315,2.9,2.9,95,0.19,,,1.72,WUHU216HW,2013-01-31 04:19:00,
2013-01-30 23:24:00,54.4,52.9,28.75,West,270,5.1,6.5,95,0.21,,,1.75,WUHU216HW,2013-01-31 04:24:00,
2013-01-30 23:29:00,54.5,53.1,28.78,WSW,248,5.6,6.5,95,0.17,,,1.78,WUHU216HW,2013-01-31 04:29:00,
2013-01-30 23:34:00,54.7,53.3,28.75,SSW,203,3.4,5.6,95,0.18,,,1.80,WUHU216HW,2013-01-31 04:34:00,
2013-01-30 23:39:00,55.1,53.6,28.75,SW,225,4.0,6.3,95,0.19,,,1.83,WUHU216HW,2013-01-31 04:39:00,
2013-01-30 23:44:00,55.1,53.6,28.75,SSW,203,3.1,6.3,95,0.18,,,1.83,WUHU216HW,2013-01-31 04:44:00,
2013-01-30 23:49:00,55.4,54.0,28.75,WSW,248,4.5,5.8,95,0.25,,,1.92,WUHU216HW,2013-01-31 04:49:00,
2013-01-30 23:54:00,55.4,54.0,28.76,SSE,158,6.9,7.8,95,0.26,,,1.94,WUHU216HW,2013-01-31 04:54:00,
2013-01-30 23:59:00,55.6,54.2,28.78,SW,225,8.5,8.5,95,0.28,,,1.96,WUHU216HW,2013-01-31 04:59:00,